Upstream stations:
Downstream station:
SHEF ID: DRMK1 NF Cottonwood Rvr nr Durham, KS
STATION TYPE:
PRECIP STAGE RIV-FLOW BAT-LOAD
in ft cfs volt
Ccp-Rev Ccp-Rev Ccp-Rev Ccp-Rev
(US/Central)
09/03 00:00 0.23 9.40 0 12.57
09/03 01:00 0.36 9.44 0 12.55
09/03 02:00 0.08 9.46 0 12.53
09/03 03:00 0.00 9.47 0 12.50
09/03 04:00 0.08 9.47 0 12.49
09/03 05:00 0.01 9.49 1 12.48
09/03 06:00 0.05 9.52 1 12.47
09/03 07:00 0.00 9.53 1 12.46
09/03 08:00 0.00 9.52 1 12.47
09/03 09:00 0.00 9.52 1 12.93
09/03 10:00 0.00 9.51 1 13.22
09/03 11:00 0.00 9.52 1 13.24
09/03 12:00 0.00 9.52 1 13.43
09/03 13:00 0.00 9.52 1 13.37
09/03 14:00 0.00 9.51 1 13.01
09/03 15:00 0.00 9.51 1 13.00
09/03 16:00 0.00 9.50 1 12.93
09/03 17:00 0.00 9.50 1 12.90
09/03 18:00 0.00 9.50 1 12.87
09/03 19:00 0.00 9.49 1 12.88
09/03 20:00 0.00 9.49 1 12.71
09/03 21:00 0.00 9.48 1 12.66
09/03 22:00 0.23 9.50 1 12.64
09/03 23:00 ---- ---- ---- ----